[[{"header":{"parameterUnit":"m.s-1","parameterCategory":1,"la1":30.2991,"la2":30.254,"lo1":-89.0895,"lo2":-89.0444,"dy":0.0017,"dx":0.0017,"nx":28,"ny":28,"refTime":"2025-09-04T21:00:00:Z","depth":0,"parameterNumber":2,"parameterNumberName":"U-component_of_WINDS"},"data":[0,0,0,0,0,0,0,0,0,0,0,0,0,0,0,0,0,0,0,0,0,0,0,0,0,0,0,0,0,0,0,0,0,0,0,0,0,0,0,0,0,0,0,0,0,0,0,0,0,0,0,0,0,0,0,0,0,0,-1.6824,-1.6823,0,-1.6806,-1.6806,-1.6806,-1.6761,-1.676,-1.6759,-1.6758,-1.6741,-1.6741,-1.6742,0,0,0,0,0,0,0,0,0,0,0,0,0,-1.6819,-1.6819,-1.6824,-1.6823,-1.6823,-1.6806,-1.6806,-1.6806,-1.6761,-1.676,-1.6758,-1.6757,-1.6741,-1.6741,-1.6742,0,0,0,0,0,0,0,0,0,0,0,0,0,-1.6813,-1.6819,-1.6824,-1.6799,-1.6796,-1.6807,-1.6806,-1.6806,-1.6761,-1.6759,-1.6758,-1.6757,-1.674,-1.6741,-1.6742,-1.6775,0,0,-1.6744,-1.6744,0,0,0,0,0,0,0,0,-1.6814,-1.6813,-1.6803,-1.68,-1.6798,-1.6784,-1.6798,-1.6796,-1.6761,-1.6774,-1.6758,-1.6756,-1.6756,-1.6756,-1.6756,-1.6774,-1.6774,-1.6744,-1.6744,-1.6745,-1.6745,0,0,0,0,0,0,0,-1.6814,-1.6814,-1.6817,-1.6802,-1.6799,-1.6789,-1.6786,-1.6798,-1.6774,-1.6773,-1.677,-1.6768,-1.6755,-1.6755,-1.6755,-1.6773,-1.6744,-1.6744,-1.6745,-1.6745,-1.682,-1.6821,0,0,0,0,0,0,-1.6818,-1.6815,-1.6817,-1.6816,-1.6802,-1.679,-1.6787,-1.679,-1.6774,-1.677,-1.677,-1.6766,-1.6755,-1.6754,-1.6754,-1.6792,-1.6745,-1.6745,-1.6746,-1.6818,-1.682,-1.6822,0,0,0,0,0,0,-1.6818,-1.6819,-1.6818,-1.6815,-1.6814,-1.6792,-1.6795,-1.679,-1.6791,-1.6771,-1.6767,-1.6774,-1.6753,-1.6753,-1.677,-1.6791,-1.6746,-1.6746,-1.6816,-1.6819,-1.6821,-1.6869,0,0,0,0,0,0,-1.6818,-1.6819,-1.6831,-1.6815,-1.6814,-1.6834,-1.6796,-1.6791,-1.6792,-1.6787,-1.6774,-1.677,-1.6752,-1.677,-1.6771,-1.6791,-1.6747,-1.6814,-1.6817,-1.682,-1.6866,-1.6873,-1.6879,0,0,0,0,0,-1.6818,-1.6845,-1.6832,-1.6832,-1.6829,-1.6836,-1.6835,-1.6813,-1.6794,-1.6806,-1.6793,-1.6771,-1.6789,-1.6772,-1.6773,-1.6794,-1.6813,-1.6816,-1.682,-1.6863,-1.6872,-1.6879,0,0,0,0,0,0,-1.6864,-1.6843,-1.6827,-1.685,-1.6845,-1.6828,-1.6842,-1.6823,-1.6824,-1.682,-1.6793,-1.6791,-1.6812,-1.6804,-1.6786,-1.6826,-1.6797,-1.6801,-1.6829,-1.6838,-1.6844,-1.6845,-1.6747,0,0,0,0,0,-1.6877,-1.6884,-1.6865,-1.6887,-1.6885,-1.6865,-1.6867,-1.6851,-1.6844,-1.6842,-1.6831,-1.6826,-1.683,-1.6834,-1.6837,-1.6865,-1.6862,-1.688,-1.6887,-1.6892,-1.6896,-1.6911,-1.6919,-1.6833,-1.6833,-1.6833,0,0,-1.6903,-1.6893,-1.6899,-1.6896,-1.689,-1.6899,-1.6863,-1.6873,-1.6879,-1.6844,-1.6859,-1.6851,-1.6844,-1.6867,-1.6876,-1.6861,-1.6919,-1.6897,-1.6902,-1.6902,-1.6915,-1.6924,-1.6931,-1.6836,-1.6835,-1.6835,0,0,-1.6956,-1.6948,-1.6966,-1.6961,-1.6953,-1.6939,-1.6943,-1.6929,-1.6922,-1.6938,-1.6911,-1.6918,-1.6927,-1.6923,-1.6922,-1.6974,-1.6954,-1.6976,-1.7011,-1.7026,-1.7033,-1.7039,-1.7058,-1.7065,-1.698,-1.698,-1.698,0,-1.699,-1.7001,-1.6978,-1.699,-1.699,-1.6958,-1.6976,-1.6973,-1.6966,-1.6967,-1.695,-1.6961,-1.6953,-1.6975,-1.6988,-1.6989,-1.6993,-1.6977,-1.7034,-1.7039,-1.7045,-1.7062,-1.7069,-1.6983,-1.6983,-1.6982,-1.6982,0,-1.7043,-1.7052,-1.7067,-1.7061,-1.7063,-1.7078,-1.7058,-1.7063,-1.7047,-1.7035,-1.7052,-1.7042,-1.7043,-1.7047,-1.7032,-1.7067,-1.7058,-1.7039,-1.7009,-1.7056,-1.7072,-1.7079,-1.6987,-1.6986,-1.6985,-1.6984,0,0,-1.7123,-1.7105,-1.7111,-1.7108,-1.7097,-1.7103,-1.7118,-1.7119,-1.7123,-1.712,-1.7132,-1.714,-1.7122,-1.7121,-1.7105,-1.7118,-1.7161,-1.7096,-1.7096,-1.7109,-1.72,-1.7215,-1.7223,-1.7147,-1.7149,-1.715,-1.72,0,-1.7173,-1.7195,-1.7175,-1.7202,-1.7209,-1.718,-1.7193,-1.7188,-1.7177,-1.7183,-1.7172,-1.7178,-1.7153,-1.7153,-1.7165,-1.7153,-1.7179,-1.7149,-1.7158,-1.7159,-1.716,-1.7231,-1.7247,-1.7295,-1.7206,-1.7207,-1.7208,0,-1.7233,-1.7232,-1.726,-1.7248,-1.725,-1.7262,-1.7261,-1.7267,-1.7261,-1.7253,-1.7252,-1.7233,-1.7247,-1.7219,-1.7238,-1.7218,-1.7221,-1.7216,-1.7217,-1.7217,-1.7186,-1.7232,-1.731,-1.7317,-1.7218,-1.7217,-1.7217,0,-1.7288,-1.7295,-1.7312,-1.7311,-1.7297,-1.7306,-1.7301,-1.7293,-1.7295,-1.7295,-1.7297,-1.7298,-1.7299,-1.7301,-1.7284,-1.7265,-1.7305,-1.7275,-1.7299,-1.7299,-1.7308,-1.7307,-1.7386,-1.731,-1.731,-1.731,-1.731,0,-1.7345,-1.7363,-1.7337,-1.7348,-1.7367,-1.7345,-1.7365,-1.7357,-1.7351,-1.7359,-1.7335,-1.7344,-1.732,-1.7327,-1.7313,-1.7331,-1.7331,-1.7325,-1.7321,-1.7327,-1.7328,-1.7328,-1.7324,-1.7312,-1.7312,-1.7311,-1.7311,0,-1.741,-1.7393,-1.741,-1.7396,-1.7393,-1.7408,-1.7396,-1.7406,-1.7395,-1.7406,-1.7408,-1.739,-1.7397,-1.7379,-1.7384,-1.7375,-1.74,-1.7391,-1.7402,-1.7399,-1.7424,-1.7422,-1.7505,-1.7515,-1.7433,-1.7434,-1.7435,0,-1.7448,-1.7461,-1.7448,-1.7452,-1.7449,-1.7456,-1.7458,-1.7436,-1.744,-1.7435,-1.7445,-1.745,-1.7452,-1.7465,-1.7453,-1.7456,-1.7447,-1.7476,-1.7447,-1.7453,-1.7447,-1.7446,-1.7448,-1.7481,-1.7482,-1.7483,-1.7484,0,-1.7516,-1.7507,-1.7511,-1.7512,-1.7515,-1.7515,-1.7513,-1.7518,-1.7496,-1.7501,-1.7507,-1.751,-1.7514,-1.7519,-1.752,-1.7515,-1.7496,-1.7493,-1.7499,-1.7505,-1.7511,-1.7508,-1.7418,-1.7491,-1.7491,-1.749,-1.749,-1.7489,-1.7568,-1.7579,-1.7572,-1.7577,-1.7573,-1.7573,-1.7581,-1.7571,-1.7576,-1.7578,-1.7565,-1.7575,-1.7569,-1.7568,-1.7566,-1.7573,-1.756,-1.7568,-1.757,-1.7572,-1.7576,-1.751,-1.7573,-1.7573,-1.7573,-1.7573,-1.7573,0,-1.7635,-1.7629,-1.7634,-1.7633,-1.7637,-1.7619,-1.7616,-1.7621,-1.763,-1.7626,-1.763,-1.7638,-1.7643,-1.7631,-1.7635,-1.7643,-1.7635,-1.7645,-1.7644,-1.7643,-1.7588,-1.7583,-1.7652,-1.7652,-1.7652,-1.7652,-1.7652,-1.7652,-1.767,-1.7687,-1.7678,-1.7693,-1.7687,-1.7696,-1.7696,-1.7696,-1.7693,-1.7703,-1.7707,-1.7699,-1.7693,-1.7696,-1.77,-1.7697,-1.7699,-1.7713,-1.7706,-1.7655,-1.7647,-1.764,-1.7635,-1.7714,-1.7714,-1.7761,-1.7761,-1.7762]},{"header":{"parameterUnit":"m.s-1","parameterCategory":1,"la1":30.2991,"la2":30.254,"lo1":-89.0895,"lo2":-89.0444,"dy":0.0017,"dx":0.0017,"nx":28,"ny":28,"refTime":"2025-09-04T21:00:00:Z","depth":0,"parameterNumber":3,"parameterNumberName":"V-component_of_WINDS"},"data":[0,0,0,0,0,0,0,0,0,0,0,0,0,0,0,0,0,0,0,0,0,0,0,0,0,0,0,0,0,0,0,0,0,0,0,0,0,0,0,0,0,0,0,0,0,0,0,0,0,0,0,0,0,0,0,0,0,0,3.0602,3.0602,0,3.058,3.058,3.0579,3.0561,3.0561,3.0561,3.056,3.0535,3.0535,3.0534,0,0,0,0,0,0,0,0,0,0,0,0,0,3.0627,3.0627,3.0602,3.0602,3.0602,3.058,3.058,3.0579,3.0561,3.0561,3.0561,3.056,3.0535,3.0535,3.0534,0,0,0,0,0,0,0,0,0,0,0,0,0,3.0612,3.0626,3.0602,3.059,3.0589,3.058,3.058,3.0579,3.0561,3.0561,3.0561,3.056,3.0535,3.0535,3.0534,3.0535,0,0,3.0532,3.0531,0,0,0,0,0,0,0,0,3.0612,3.0611,3.0592,3.0591,3.0589,3.0573,3.0579,3.0564,3.0561,3.0571,3.056,3.056,3.0548,3.0546,3.0542,3.0534,3.0533,3.0532,3.0531,3.0531,3.0531,0,0,0,0,0,0,0,3.0614,3.0611,3.0593,3.0592,3.059,3.0585,3.0582,3.0576,3.0561,3.0571,3.0569,3.0567,3.0547,3.0543,3.0542,3.0532,3.0532,3.0531,3.053,3.053,3.0523,3.0523,0,0,0,0,0,0,3.0617,3.0612,3.0594,3.0593,3.0601,3.0585,3.0582,3.0578,3.0561,3.0559,3.0567,3.0566,3.0544,3.0542,3.0541,3.054,3.0531,3.053,3.053,3.0523,3.0523,3.0523,0,0,0,0,0,0,3.0617,3.0615,3.0595,3.0602,3.0599,3.0585,3.0581,3.0578,3.0574,3.0559,3.0556,3.0566,3.0544,3.0542,3.0537,3.0539,3.053,3.0529,3.0522,3.0523,3.0523,3.054,0,0,0,0,0,0,3.0618,3.0616,3.0616,3.0602,3.0599,3.0592,3.0581,3.0578,3.0573,3.0572,3.0557,3.0554,3.0544,3.0538,3.0536,3.0538,3.0528,3.0522,3.0522,3.0523,3.0539,3.0541,3.0542,0,0,0,0,0,3.0619,3.0621,3.0616,3.0614,3.06,3.0592,3.059,3.0579,3.0574,3.0574,3.0564,3.0555,3.0539,3.0537,3.0535,3.0537,3.0522,3.0522,3.0523,3.0538,3.054,3.0542,0,0,0,0,0,0,3.0635,3.0619,3.0614,3.0612,3.0604,3.0589,3.0589,3.0581,3.0574,3.0572,3.0558,3.0555,3.0551,3.0543,3.0542,3.0537,3.0529,3.0529,3.0542,3.0544,3.0545,3.0547,3.0528,0,0,0,0,0,3.0639,3.0635,3.0621,3.062,3.0617,3.0604,3.06,3.0592,3.0582,3.0579,3.0568,3.0559,3.0552,3.0547,3.054,3.0538,3.0534,3.0538,3.054,3.0541,3.0541,3.0539,3.054,3.0525,3.0525,3.0525,0,0,3.0645,3.0636,3.0634,3.0623,3.0616,3.0611,3.0601,3.0596,3.0593,3.0578,3.0572,3.0565,3.0553,3.0549,3.0547,3.0543,3.0545,3.0542,3.0543,3.0542,3.054,3.0541,3.0542,3.0525,3.0525,3.0525,0,0,3.0655,3.0648,3.0647,3.064,3.0629,3.0621,3.0621,3.0608,3.0602,3.0597,3.0585,3.058,3.0569,3.0561,3.0555,3.0563,3.0554,3.0561,3.0569,3.0567,3.0568,3.0569,3.0571,3.0572,3.0561,3.0561,3.0561,0,3.0664,3.0658,3.0647,3.0643,3.0638,3.0626,3.0624,3.0618,3.0605,3.0602,3.0598,3.0583,3.0574,3.0568,3.057,3.0566,3.0565,3.0562,3.0569,3.057,3.0571,3.0572,3.0573,3.0562,3.0562,3.0562,3.0562,0,3.0669,3.0665,3.0665,3.0654,3.0649,3.0647,3.0635,3.0631,3.0624,3.0616,3.061,3.06,3.059,3.0588,3.058,3.0581,3.0579,3.0572,3.0564,3.0573,3.0575,3.0575,3.0563,3.0563,3.0563,3.0563,0,0,3.0687,3.0671,3.0671,3.0666,3.0654,3.065,3.0647,3.0638,3.0635,3.0627,3.0623,3.0614,3.0608,3.0602,3.0593,3.0592,3.0597,3.0585,3.0585,3.0587,3.0597,3.0601,3.0602,3.0592,3.0592,3.0592,3.0597,0,3.0695,3.0689,3.0679,3.0676,3.0671,3.066,3.0657,3.0648,3.0641,3.0635,3.0626,3.062,3.0613,3.0609,3.0607,3.0597,3.0599,3.0597,3.0587,3.0587,3.059,3.0603,3.0607,3.0613,3.0598,3.0598,3.0598,0,3.0702,3.0695,3.0692,3.068,3.0678,3.0676,3.0667,3.0662,3.0652,3.0647,3.0641,3.0631,3.0627,3.062,3.0613,3.0611,3.0607,3.0602,3.0602,3.0599,3.0592,3.06,3.0614,3.0615,3.0599,3.0599,3.0599,0,3.0715,3.0705,3.0702,3.0698,3.0684,3.0683,3.0677,3.0667,3.0662,3.0655,3.0651,3.0643,3.0638,3.0631,3.062,3.0616,3.0613,3.0606,3.0608,3.0608,3.0607,3.0607,3.062,3.0606,3.0606,3.0606,3.0606,0,3.0723,3.0721,3.0707,3.0705,3.0703,3.0691,3.0689,3.0682,3.0673,3.0669,3.0659,3.0655,3.064,3.0634,3.0626,3.062,3.0618,3.0613,3.0611,3.0614,3.0614,3.061,3.0609,3.0606,3.0606,3.0606,3.0606,0,3.0736,3.0727,3.0723,3.0711,3.0707,3.0706,3.0695,3.0692,3.0685,3.0679,3.0677,3.0665,3.0657,3.0646,3.0634,3.0628,3.0624,3.0621,3.0628,3.0626,3.0628,3.0628,3.0638,3.0638,3.0625,3.0625,3.0625,0,3.0742,3.074,3.0729,3.0725,3.072,3.0715,3.0711,3.07,3.0695,3.0685,3.0683,3.0675,3.0668,3.0656,3.0646,3.0637,3.0632,3.0637,3.0631,3.0634,3.0632,3.0631,3.0631,3.0638,3.0638,3.0638,3.0638,0,3.0753,3.0748,3.0743,3.0736,3.0731,3.0725,3.0718,3.0716,3.0703,3.0698,3.0691,3.0686,3.0675,3.0667,3.0657,3.065,3.0642,3.064,3.064,3.0643,3.0646,3.0644,3.0631,3.064,3.064,3.0639,3.0639,3.0639,3.0762,3.076,3.0751,3.0745,3.0739,3.0733,3.073,3.0722,3.0716,3.0707,3.0701,3.0694,3.0684,3.067,3.0664,3.0657,3.0654,3.0654,3.0653,3.0653,3.0654,3.0648,3.0656,3.0656,3.0656,3.0655,3.0655,0,3.0771,3.0765,3.076,3.0751,3.0747,3.0741,3.0733,3.0729,3.0723,3.0715,3.0709,3.0701,3.0693,3.0682,3.0673,3.067,3.0666,3.0668,3.0668,3.0666,3.0658,3.0659,3.0672,3.0672,3.0672,3.0672,3.0672,3.0672,3.0776,3.0772,3.0767,3.076,3.0753,3.0747,3.0743,3.0737,3.0731,3.0722,3.0716,3.071,3.07,3.0691,3.0683,3.068,3.0677,3.068,3.0676,3.0668,3.0667,3.0665,3.0666,3.068,3.068,3.0684,3.0684,3.0684]}]]